Location: LDNL
(36.4545°S, 141.6685°E)
Time: 12:54:16
(UTC+10:00)

Explorer 7 - Pass Details

Date: 16 August 2022
Orbit: 482 x 668 km, 50.3° (Epoch: 26 September)

Event Time Altitude Azimuth Distance (km) Brightness Sun altitude
Rises 21:10:23 0° 230° (SW) 2,988 11.3 -38.6°
Enters shadow 21:12:53 - 215° (SW) 2,224 10.4 -39.1°
Reaches altitude 10° 21:13:35 10° 209° (SSW) 2,045 - -39.2°
Maximum altitude 21:16:34 16° 170° (S) 1,627 - -39.8°
Drops below altitude 10° 21:19:28 10° 130° (SE) 1,971 - -40.3°
Sets 21:22:28 0° 108° (ESE) 2,828 - -40.9°
